sat.trackr.live / text

‹ back to catalog

STARLINK-2739

NORAD 48639 · 2021-044B

PAYLOAD ACTIVE UNKNOWN

§ Identity

Operator
Country
US
Launch date
2021-05-26
Launch site
AFETR
Launch vehicle
Mass (kg)
RCS (m²)

Purposes: comms

External: N2YO · Heavens-Above · Gunter

§ Orbital elements

Epoch: 2026-05-25T04:47:45.408768Z

Period
94.01 min
Inclination
53.1577°
Eccentricity
0.0001179
Mean motion
15.31691484 rev/d
Perigee alt
470.0 km
Apogee alt
471.6 km
Semi-major
6,848.9 km
B*
6.6744e-6
RAAN
117.9926°
Arg perigee
80.8961°
Mean anomaly
279.2174°
Rev number
27,554

§ Raw data

STARLINK-27391 48639U 21044B   26145.19983112 -.00000158  00000+0  66744-5 0  99992 48639  53.1577 117.9926 0001179  80.8961 279.2174 15.31691484275542

JSON: /api/v1/satellites/48639 · /tle

For live sub-satellite position, see the globe view (requires WebGL).

§ Visibility from observer

Set your observer location to see the next 7 days of passes ≥ 10°. The values pass through the URL so the page stays shareable.

No JS? Fill the form by hand. The geolocation button needs JavaScript.